COSMOS 2460 (732)

Last updated on Jan. 17, 2020, 4:32 a.m. UTC

1 36402U 10007C   20016.36834661 -.00000032  00000-0  10000-3 0  9999
2 36402  65.8181  32.9452 0002655 262.1170 208.4794  2.13101460 76878
UTC
Height (km)
Latitude
Longitude
Inclination
Orbital Period
UTC large
Height (km)
Speed (km/s)
/
Latitude / Longitude
Inclination (degrees)
Orbital Period (minutes)
Azimuth
Elevation
Range (km)
Doppler Factor
iOS Compass Heading
iOS Angle

Next 30 passes for location: Hong Kong

Rise time Rise Azimuth (degrees) Set time Set Azimuth (degrees) Duration Max altitude (degrees)

No matching passes for this satellites